Terminal Aerodrome Forecast
Issued by NWS

Home | Current Version | Previous Version | Text Only | Print | Product List | Glossary On
Versions: 1 2 3 4 5 6 7 8 9 10 11 12 13 14 15 16 17 18 19 20 21 22 23 24 25 26 27 28 29 30 31 32 33 34 35 36 37 38
082
FTUS41 KOKX 250530
TAFGON
TAF
KGON 250530Z 2506/2606 08008KT P6SM SCT035 BKN250
     FM250800 07011KT P6SM BKN025
     FM251100 07012G20KT 6SM -RA BR SCT006 BKN012
     FM251300 07015G22KT 2SM -RA BR OVC005
     FM252100 06011KT 2SM -SHRA BR OVC004
     FM260200 07008KT 1SM -SHRA BR OVC003=

USA.gov is the U.S. government's official web portal to all federal, state and local government web resources and services.